GW6586 Weather Reports


time (UTC)temp
C
wind
direction
speed
KPH
gust
KPH
rain 1hr
cm
rain 24hr
cm
rain mn
cm
humidity
%
barometer
mb
20260505224528 12 88 14.5 22.5 0.00 0.00 0.00 77 1027.3
20260505223024 12 117 16.1 29.0 0.00 0.00 0.00 77 1027.1
20260505221518 12 113 17.7 25.7 0.00 0.00 0.00 78 1027.0
20260505220008 12 100 16.1 24.1 0.00 0.00 0.00 78 1027.0
20260505214519 12 109 12.9 22.5 0.00 0.00 0.00 78 1026.9
20260505213023 12 124 14.5 22.5 0.00 0.00 0.00 77 1026.8
20260505211507 12 112 16.1 22.5 0.00 0.00 0.00 77 1026.8
20260505210022 12 107 14.5 22.5 0.00 0.00 0.00 77 1026.7
20260505204503 12 118 11.3 22.5 0.00 0.00 0.00 76 1026.6
20260505201522 13 93 16.1 27.4 0.00 0.00 0.00 74 1026.6
20260505200012 13 125 14.5 25.7 0.00 0.00 0.00 74 1026.7
20260505194516 13 119 14.5 25.7 0.00 0.00 0.00 73 1026.6
20260505193023 13 144 16.1 25.7 0.00 0.00 0.00 73 1026.5
20260505191511 13 132 16.1 22.5 0.00 0.00 0.00 72 1026.6
20260505190017 13 128 12.9 19.3 0.00 0.00 0.00 72 1026.5
20260505184528 13 138 11.3 17.7 0.00 0.00 0.00 71 1026.6
20260505183034 13 107 11.3 19.3 0.00 0.00 0.00 70 1026.7
20260505181525 13 118 11.3 19.3 0.00 0.00 0.00 69 1026.6
20260505180008 14 113 12.9 19.3 0.00 0.00 0.00 68 1026.4
20260505174517 15 117 16.1 29.0 0.00 0.00 0.00 66 1026.3
20260505173023 15 126 17.7 27.4 0.00 0.00 0.00 66 1026.3
20260505171513 15 124 17.7 25.7 0.00 0.00 0.00 66 1026.2
20260505170019 15 142 16.1 32.2 0.00 0.00 0.00 65 1026.1
20260505164525 15 108 16.1 25.7 0.00 0.00 0.00 66 1026.2
20260505163014 15 130 12.9 22.5 0.00 0.00 0.00 67 1026.2
20260505161527 15 138 12.9 25.7 0.00 0.00 0.00 67 1026.1
20260505153024 13 137 8.0 14.5 0.00 0.00 0.00 76 1026.1
20260505151514 13 94 6.4 12.9 0.00 0.00 0.00 77 1026.1
20260505124526 15 148 4.8 12.9 0.00 0.00 0.00 74 1026.1
20260505123016 15 160 8.0 12.9 0.00 0.00 0.00 74 1026.1
20260505120028 16 182 6.4 11.3 0.00 0.00 0.00 73 1026.2
20260505114520 16 147 6.4 11.3 0.00 0.00 0.00 75 1025.9
20260505113030 16 141 4.8 9.7 0.00 0.00 0.00 77 1025.9
20260505111525 16 151 3.2 8.0 0.00 0.00 0.00 76 1025.9
20260505101527 17 188 3.2 14.5 0.00 0.00 0.00 77 1025.3
20260505100027 17 232 8.0 16.1 0.00 0.00 0.00 76 1025.1
20260505094529 17 215 11.3 16.1 0.00 0.00 0.00 75 1025.1
20260505091518 18 217 11.3 27.4 0.00 0.00 0.00 74 1025.1
20260505090025 18 256 16.1 27.4 0.00 0.00 0.00 73 1025.1
20260505084534 18 219 16.1 25.7 0.00 0.00 0.00 70 1025.0
20260505083021 18 224 17.7 25.7 0.00 0.00 0.00 70 1025.0
20260505081527 18 244 12.9 24.1 0.00 0.00 0.00 70 1024.8
20260505080015 19 186 16.1 22.5 0.00 0.00 0.00 69 1024.8
20260505074523 19 210 12.9 25.7 0.00 0.00 0.00 69 1024.7
20260505073037 19 227 11.3 25.7 0.00 0.00 0.00 69 1024.6
20260505071521 19 238 17.7 25.7 0.00 0.00 0.00 68 1024.6
20260505070036 20 209 12.9 22.5 0.00 0.00 0.00 68 1024.6
20260505064527 20 215 9.7 24.1 0.00 0.00 0.00 68 1024.7
20260505063022 19 227 19.3 24.1 0.00 0.00 0.00 66 1024.6
20260505061507 20 257 12.9 20.9 0.00 0.00 0.00 63 1024.6
20260505053007 20 256 8.0 12.9 0.00 0.00 0.00 60 1024.9
20260505051514 19 247 11.3 17.7 0.00 0.00 0.00 61 1024.9
20260505041514 21 260 6.4 11.3 0.00 0.00 0.00 54 1025.6
20260505040013 21 39 4.8 14.5 0.00 0.00 0.00 53 1025.8
20260505034510 21 82 6.4 14.5 0.00 0.00 0.00 53 1026.1
20260505033010 20 101 4.8 14.5 0.00 0.00 0.00 55 1026.3
20260505031520 20 33 6.4 14.5 0.00 0.00 0.00 56 1026.3
20260505030010 19 53 4.8 16.1 0.00 0.00 0.00 57 1026.4
20260505024513 18 86 6.4 19.3 0.00 0.00 0.00 59 1026.5
20260505023012 18 155 4.8 16.1 0.00 0.00 0.00 62 1026.6
20260505021509 18 75 8.0 16.1 0.00 0.00 0.00 62 1026.6
20260505020010 17 63 6.4 16.1 0.00 0.00 0.00 63 1026.6
20260505014509 17 103 11.3 19.3 0.00 0.00 0.00 64 1026.6
20260505013015 16 76 8.0 17.7 0.00 0.00 0.00 65 1026.6
20260505011514 16 95 8.0 14.5 0.00 0.00 0.00 67 1026.6
20260505004517 15 96 6.4 20.9 0.00 0.00 0.00 70 1026.6
20260505003016 15 127 12.9 24.1 0.00 0.00 0.00 72 1026.4
20260505001516 13 67 12.9 20.9 0.00 0.00 0.00 75 1026.1
20260505000017 13 101 11.3 19.3 0.00 0.00 0.00 78 1026.0
20260504231517 12 65 8.0 17.7 0.00 0.00 0.00 80 1025.3
20260504230016 11 96 11.3 16.1 0.00 0.00 0.00 81 1025.2